User: anonymous   Login
Location: Bois de la Silve
(44.4667°N, 6.7833°E)
Time: 02:17:12
(UTC+00:00)
Language:

Cosmos 921 Rocket - Orbit

View from above orbital plane
View from above orbital plane
View from above satellite
View from above satellite

Ground track
Ground track

The orbit data is extracted from the following two-line orbital elements,

1 10096U 77055B   20272.47870474  .00000072  00000-0  97694-5 0  9993
2 10096  75.8363  29.1739 0042478  30.5407 329.8244 14.88714385340698
Epoch (UTC): 28 September 2020 11:29:20
Eccentricity: 0.0042478
inclination: 75.8363°
perigee height: 572 km
apogee height: 631 km
right ascension of ascending node: 29.1739°
argument of perigee: 30.5407°
revolutions per day: 14.88714385
mean anomaly at epoch: 329.8244°
orbit number at epoch: 34069

The dashed part of the orbit path shows where the satellite is in the earth's shadow,  

DLR